This demonstration page uses our WeatherBlox Daily Observations layout. Learn more.

Left ArrowRight Arrow

Hourly Observations for June 24, 2022

Temp ( °F °C ) Dew Point ( °F °C ) Humidity (%) Winds ( mph kmh ) Pressure ( in mb ) Visibility ( mi km ) Precip ( " mm )
12:15 am 00:15 Clear 72 22 65 18.6 81 81 SSE 8 13 29.79 1009 10 16 0.00 0.00
12:35 am 00:35 Clear 72 22 65 18.6 81 81 SE 5 7 29.79 1009 10 16 0.00 0.00
12:55 am 00:55 Clear 72 22.2 65 18.6 80 80 SE 6 9 29.77 1008 10 16 0.00 0.00
1:15 am 01:15 Clear 71 21.5 66 18.7 84 84 SSE 5 7 29.77 1008 10 16 0.00 0.00
1:35 am 01:35 Clear 70 20.9 66 18.7 87 87 SE 5 7 29.77 1008 10 16 0.00 0.00
1:55 am 01:55 Clear 70 21 66 18.7 87 87 ESE 3 6 29.76 1008 10 16 0.00 0.00
2:15 am 02:15 Clear 69 20.3 65 18.3 88 88 Calm 29.77 1008 10 16 0.00 0.00
2:35 am 02:35 Clear 70 21.3 66 18.9 86 86 S 10 17 29.75 1007 10 16 0.00 0.00
2:55 am 02:55 Clear 74 23.4 66 18.8 75 75 S 15 24 29.73 1007 10 16 0.00 0.00
3:15 am 03:15 Clear 74 23.5 66 18.7 75 75 S 16 26 29.72 1007 10 16 0.00 0.00
3:35 am 03:35 Clear 73 23 66 18.9 78 78 S 15 24 29.73 1007 10 16 0.00 0.00
3:55 am 03:55 Clear 73 22.5 66 19 81 81 S 12 19 29.72 1006 10 16 0.00 0.00
4:15 am 04:15 Clear 72 22.1 66 19 83 83 S 10 17 29.72 1007 10 16 0.00 0.00
4:35 am 04:35 Clear 72 22 65 18.5 81 81 S 10 17 29.73 1007 10 16 0.00 0.00
4:55 am 04:55 Clear 71 21.7 65 18.2 81 81 S 7 11 29.74 1007 10 16 0.00 0.00
5:15 am 05:15 Clear 71 21.6 64 18 80 80 S 7 11 29.75 1007 10 16 0.00 0.00
5:35 am 05:35 Clear 71 21.4 65 18.3 83 83 SSE 5 7 29.75 1007 10 16 0.00 0.00
5:55 am 05:55 Clear 70 21.3 65 18.6 85 85 ESE 5 7 29.75 1007 10 16 0.00 0.00
6:15 am 06:15 Sunny 71 21.7 66 19 85 85 SE 6 9 29.75 1007 10 16 0.00 0.00
6:35 am 06:35 Sunny 72 22.1 67 19.2 84 84 SSE 7 11 29.75 1008 10 16 0.00 0.00
6:55 am 06:55 Sunny 73 22.8 67 19.2 80 80 SSE 13 20 29.75 1007 10 16 0.00 0.00
7:15 am 07:15 Sunny 74 23.5 67 19.2 77 77 SSE 13 20 29.74 1007 10 16 0.00 0.00
7:35 am 07:35 Sunny 74 23.6 66 19 75 75 SSE 14 22 29.75 1008 10 16 0.00 0.00
7:55 am 07:55 Sunny 74 23.5 66 19 76 76 SSE 16 26 29.74 1007 10 16 0.00 0.00
8:15 am 08:15 Sunny 73 23 65 18.3 75 75 SE 15 24 29.76 1008 10 16 0.00 0.00
8:35 am 08:35 Sunny 74 23.1 65 18.5 75 75 SSE 18 30 29.76 1008 10 16 0.00 0.00
8:55 am 08:55 Sunny 75 24.1 66 18.8 72 72 SE 12 19 29.76 1008 10 16 0.00 0.00
9:15 am 09:15 Sunny 76 24.2 66 19 73 73 SSE 17 28 29.76 1008 10 16 0.00 0.00
9:35 am 09:35 Partly Cloudy 77 25.2 67 19.2 69 69 SSE 14 22 29.75 1007 10 16 0.00 0.00
9:55 am 09:55 Partly Cloudy 77 25.1 66 19.1 69 69 SSE 17 28 29.75 1007 10 16 0.00 0.00
10:15 am 10:15 Partly Cloudy 78 25.6 67 19.4 69 69 S 15 24 29.75 1007 10 16 0.00 0.00
10:35 am 10:35 Partly Cloudy 78 25.8 67 19.5 68 68 S 14 22 29.74 1007 10 16 0.00 0.00
10:55 am 10:55 Partly Cloudy 80 26.7 67 19.7 66 66 SSE 13 20 29.73 1007 10 16 0.00 0.00
11:15 am 11:15 Partly Cloudy 81 27 68 19.9 65 65 SSE 12 19 29.72 1007 10 16 0.00 0.00
11:35 am 11:35 Partly Cloudy 82 27.5 68 19.9 63 63 SSE 12 19 29.71 1006 10 16 0.00 0.00
11:55 am 11:55 Partly Cloudy 83 28.5 68 20 60 60 S 12 19 29.70 1006 10 16 0.00 0.00
12:15 pm 12:15 Partly Cloudy 84 28.9 68 20.1 59 59 SSE 12 19 29.69 1005 10 16 0.00 0.00
12:35 pm 12:35 Mostly Cloudy 83 28.5 68 20.1 60 60 SE 9 15 29.69 1005 10 16 0.00 0.00
12:55 pm 12:55 Mostly Cloudy 85 29.3 68 19.8 57 57 ESE 8 13 29.69 1005 10 16 0.00 0.00
1:15 pm 13:15 Partly Cloudy 85 29.6 68 19.9 56 56 S 9 15 29.68 1005 10 16 0.00 0.00
1:35 pm 13:35 Partly Cloudy 85 29.7 68 19.9 56 56 SE 8 13 29.67 1005 10 16 0.00 0.00
1:55 pm 13:55 Partly Cloudy 86 30.2 68 20.1 55 55 ESE 10 17 29.67 1005 10 16 0.00 0.00
2:15 pm 14:15 Partly Cloudy 86 30.2 68 20 54 54 SE 6 9 29.66 1004 10 16 0.00 0.00
2:35 pm 14:35 Partly Cloudy 87 30.5 68 20.1 54 54 ESE 12 19 29.66 1004 10 16 0.00 0.00
2:55 pm 14:55 Sunny 87 30.7 68 20 53 53 ESE 9 15 29.65 1004 10 16 0.00 0.00
3:15 pm 15:15 Partly Cloudy 88 31.1 68 20.1 52 52 E 10 17 29.65 1004 10 16 0.00 0.00
3:35 pm 15:35 Partly Cloudy 88 31.1 68 19.8 51 51 E 14 22 29.64 1004 10 16 0.00 0.00
3:55 pm 15:55 Sunny 87 30.4 67 19.7 53 53 ESE 12 19 29.65 1004 10 16 0.00 0.00
4:15 pm 16:15 Partly Cloudy 88 31.2 68 20 51 51 ESE 14 22 29.64 1004 10 16 0.00 0.00
4:35 pm 16:35 Partly Cloudy 88 31.2 67 19.7 50 50 ESE 10 17 29.64 1004 10 16 0.00 0.00
4:55 pm 16:55 Partly Cloudy 88 31.1 68 19.8 51 51 E 8 13 29.63 1003 10 16 0.00 0.00
5:15 pm 17:15 Partly Cloudy 89 31.5 68 19.9 50 50 ESE 12 19 29.63 1003 10 16 0.00 0.00
5:35 pm 17:35 Partly Cloudy 88 31.3 67 19.6 50 50 ESE 8 13 29.62 1003 10 16 0.00 0.00
5:55 pm 17:55 Sunny 88 31.1 68 20.2 52 52 SE 13 20 29.61 1003 10 16 0.00 0.00
6:15 pm 18:15 Sunny 88 31.2 68 20.2 52 52 ESE 10 17 29.60 1002 10 16 0.00 0.00
6:35 pm 18:35 Sunny 88 31 68 20.1 52 52 SSE 8 13 29.60 1002 10 16 0.00 0.00
6:55 pm 18:55 Sunny 88 30.9 69 20.4 54 54 ESE 8 13 29.60 1002 10 16 0.00 0.00
7:15 pm 19:15 Sunny 87 30.8 69 20.5 54 54 ESE 12 19 29.60 1003 10 16 0.00 0.00
7:35 pm 19:35 Sunny 87 30.5 69 20.6 55 55 ESE 12 19 29.61 1003 10 16 0.00 0.00
7:55 pm 19:55 Sunny 86 30.1 69 20.6 57 57 ESE 10 17 29.61 1003 10 16 0.00 0.00
8:15 pm 20:15 Sunny 86 30 70 20.9 58 58 SE 9 15 29.60 1002 10 16 0.00 0.00
8:35 pm 20:35 Sunny 84 29.1 70 21.3 63 63 ESE 10 17 29.60 1002 10 16 0.00 0.00
8:55 pm 20:55 Sunny 84 28.8 71 21.8 66 66 ESE 7 11 29.62 1003 10 16 0.00 0.00
9:15 pm 21:15 Clear 82 27.5 72 22 72 72 NE 5 7 29.64 1004 10 16 0.00 0.00
9:35 pm 21:35 Clear 79 26.3 72 22 77 77 NE 6 9 29.65 1004 10 16 0.00 0.00
9:55 pm 21:55 Clear 79 26.3 71 21.9 77 77 NE 6 9 29.68 1005 10 16 0.00 0.00
10:15 pm 22:15 Clear 79 25.9 71 21.7 78 78 NE 7 11 29.69 1006 10 16 0.00 0.00
10:35 pm 22:35 Clear 78 25.8 71 21.6 78 78 NE 6 9 29.69 1006 10 16 0.00 0.00
10:55 pm 22:55 Clear 79 26 71 21.7 77 77 NE 6 9 29.70 1006 10 16 0.00 0.00
11:15 pm 23:15 Clear 79 26 72 22 79 79 ENE 5 7 29.71 1006 10 16 0.00 0.00
11:35 pm 23:35 Partly Cloudy with Thunderstorms 75 24.1 69 20.5 80 80 SW 14 22 29.76 1008 10 16 0.00 0.00
11:55 pm 23:55 Cloudy with Thunderstorms 72 22 69 20.4 91 91 SSW 10 17 29.79 1009 10 16 0.00 0.00

Powered by AerisWeather